Weather reports worldwide

Advertisment
Shap, United Kingdom (3225): temperature & dewpoint: 13.12.2018 04:00:00 - 19.12.2018 04:00:00 (GMT)Shap, United Kingdom (3225): temperature -20cm & temperature -100cm: 13.12.2018 04:00:00 - 19.12.2018 04:00:00 (GMT)Shap, United Kingdom (3225): wind speed & gusts: 13.12.2018 04:00:00 - 19.12.2018 04:00:00 (GMT)Shap, United Kingdom (3225): wind direction: 13.12.2018 04:00:00 - 19.12.2018 04:00:00 (GMT)Shap, United Kingdom (3225): reduced air pressure: 13.12.2018 04:00:00 - 19.12.2018 04:00:00 (GMT)Shap, United Kingdom (3225): visibility: 13.12.2018 04:00:00 - 19.12.2018 04:00:00 (GMT)Shap, United Kingdom (3225): sunshine duration: 13.12.2018 04:00:00 - 19.12.2018 04:00:00 (GMT)Shap, United Kingdom (3225): precipitation: 13.12.2018 04:00:00 - 19.12.2018 04:00:00 (GMT)
Date & Time tt [°C] td [°C] tt -20cm [°C] tt -100cm [°C] ff [km/h] ff [kn] fx [km/h] fx [kn] dd ppp [hPa] vv [km] sd [min] rr [mm]
19.12.2018 04:00:00 5,4 4,6 - - 18 10 - - S 998,5 14 0 0,0
19.12.2018 03:00:00 5,5 4,8 - - 16 9 - - SSW 998,4 16 0 0,0
19.12.2018 02:00:00 5,5 4,7 - - 21 11 - - SSW 997,9 7 0 0,6
19.12.2018 01:00:00 5,3 4,5 - - 16 9 - - SSW 998,0 9 0 0,0
19.12.2018 00:00:00 5,4 4,5 - - 18 10 - - SSW 998,1 22 - 0,0
18.12.2018 23:00:00 5,3 4,4 - - 11 6 - - S 998,2 28 0 0,2
18.12.2018 22:00:00 5,3 4,5 - - 11 6 - - S 998,2 22 0 0,0
18.12.2018 21:00:00 5,2 4,4 - - 13 7 - - SSW 998,2 4,5 0 0,4
18.12.2018 20:00:00 5,5 4,6 - - 11 6 - - S 998,2 13 0 0,0
18.12.2018 19:00:00 5,3 4,1 - - 18 10 - - SSW 997,8 50 0 0,2
18.12.2018 18:00:00 5,5 3,9 - - 13 7 - - SW 998,1 18 0 0,6
18.12.2018 17:00:00 6,4 5,1 - - 24 13 - - SSW 997,9 7 0 2,4
18.12.2018 16:00:00 6,8 5,8 - - 31 17 65 35 SSW 997,9 2,8 0 3,2
18.12.2018 15:00:00 7,2 6,2 - - 42 23 65 35 SSW 997,0 3,3 0 5,0
18.12.2018 14:00:00 7,7 6,4 - - 54 29 74 40 S 997,2 4,7 0 3,8
18.12.2018 13:00:00 7,9 6,6 - - 46 25 76 41 S 997,9 3,9 0 5,0
18.12.2018 12:00:00 8,1 6,8 - - 46 25 78 42 S 998,9 4,9 0 4,0
18.12.2018 11:00:00 8,5 6,9 - - 48 26 74 40 S 999,3 7 0 5,2
18.12.2018 10:00:00 8,7 7,0 - - 52 28 81 44 S 999,7 3,7 0 1,6
18.12.2018 09:00:00 8,8 7,4 4,4 6,2 55 30 83 45 S 999,5 4,0 0 2,2
18.12.2018 08:00:00 8,7 7,1 - - 48 26 78 42 S 1000,4 12 0 1,6
18.12.2018 07:00:00 9,4 6,7 - - 48 26 68 37 S 1001,4 29 0 0,0
18.12.2018 06:00:00 9,2 6,7 - - 39 21 63 34 S 1002,8 30 0 0,0
18.12.2018 05:00:00 9,0 6,6 - - 35 19 57 31 S 1004,2 30 0 0,0
18.12.2018 04:00:00 9,0 6,7 - - 35 19 52 28 S 1005,1 30 0 0,0
18.12.2018 03:00:00 9,1 6,8 - - 35 19 52 28 S 1006,3 30 0 0,0
18.12.2018 02:00:00 8,8 6,9 - - 31 17 50 27 S 1007,1 27 0 0,0
18.12.2018 01:00:00 8,6 6,7 - - 28 15 48 26 S 1008,3 12 0 0,0
18.12.2018 00:00:00 8,8 6,6 - - 29 16 55 30 S 1009,0 30 - 0,0
17.12.2018 23:00:00 8,3 6,7 - - 41 22 68 37 S 1009,1 23 0 0,0
17.12.2018 22:00:00 7,6 6,2 - - 46 25 63 34 SSW 1008,7 25 0 0,0
17.12.2018 21:00:00 7,2 5,9 - - 42 23 61 33 S 1009,8 19 0 0,0
17.12.2018 20:00:00 6,9 5,7 - - 35 19 54 29 S 1011,0 17 0 0,0
17.12.2018 19:00:00 6,0 5,3 - - 22 12 - - S 1011,3 8 0 0,2
17.12.2018 18:00:00 5,7 4,5 - - 29 16 46 25 S 1011,3 19 0 0,2
17.12.2018 17:00:00 5,5 4,2 - - 16 9 - - S 1012,4 17 0 0,0
17.12.2018 16:00:00 5,7 4,4 - - 22 12 - - SSE 1012,8 17 0 0,0
17.12.2018 15:00:00 5,7 4,3 - - 11 6 - - SSE 1012,5 30 0 0,0
17.12.2018 14:00:00 5,6 4,1 - - 15 8 - - SSE 1012,8 29 0 0,0
17.12.2018 13:00:00 5,7 4,6 - - 26 14 - - SSW 1012,7 29 6 0,0
17.12.2018 12:00:00 6,1 5,1 - - 21 11 - - SW 1013,1 30 0 0,0
17.12.2018 11:00:00 5,5 4,8 - - 16 9 - - SSW 1013,0 18 0 0,0
17.12.2018 10:00:00 4,8 4,4 - - 15 8 - - SSW 1012,9 18 6 0,0
17.12.2018 09:00:00 2,9 2,1 4,0 6,4 11 6 - - SW 1012,3 30 0 0,0
17.12.2018 08:00:00 3,4 1,9 - - 13 7 - - SW 1011,9 35 0 0,0
17.12.2018 07:00:00 4,0 2,7 - - 15 8 - - SSW 1011,0 35 0 0,0
17.12.2018 06:00:00 3,2 1,6 - - 5 3 - - WSW 1010,2 45 0 0,0
17.12.2018 05:00:00 3,2 2,2 - - 9 5 - - SW 1009,5 50 0 0,0
17.12.2018 04:00:00 3,2 2,3 - - 8 4 - - S 1008,8 50 0 0,0
17.12.2018 03:00:00 2,5 1,1 - - 4 2 - - W 1008,1 50 0 0,0
17.12.2018 02:00:00 3,9 3,4 - - 9 5 - - SSW 1007,3 50 0 0,0
17.12.2018 01:00:00 3,3 2,7 - - 9 5 - - S 1006,1 40 0 0,0
17.12.2018 00:00:00 3,5 2,9 - - 8 4 - - S 1005,8 35 - 0,2
16.12.2018 23:00:00 3,4 2,5 - - 8 4 - - S 1005,3 16 0 0,6
16.12.2018 22:00:00 3,9 2,6 - - 21 11 - - S 1005,0 8 0 1,4
16.12.2018 21:00:00 4,8 3,7 - - 16 9 - - SSE 1004,4 10 0 1,6
16.12.2018 20:00:00 3,5 2,8 - - 9 5 - - S 1004,0 17 0 0,0
16.12.2018 19:00:00 4,3 3,4 - - 5 3 - - S 1003,5 16 0 0,2
16.12.2018 18:00:00 3,5 2,7 - - 9 5 - - S 1003,4 26 0 0,0
16.12.2018 17:00:00 3,2 2,0 - - 13 7 - - S 1002,9 30 0 0,0
16.12.2018 16:00:00 4,5 3,2 - - 5 3 - - S 1003,0 30 0 0,0
16.12.2018 15:00:00 4,9 3,3 - - 8 4 - - S 1002,6 30 0 0,0
16.12.2018 14:00:00 5,1 3,2 - - 21 11 - - SSW 1002,4 35 0 0,0
16.12.2018 13:00:00 5,2 3,3 - - 13 7 - - S 1002,5 40 0 0,0
16.12.2018 12:00:00 5,6 3,1 - - 15 8 - - S 1002,4 40 30 0,0
16.12.2018 11:00:00 5,2 3,9 - - 22 12 - - SSW 1002,4 30 6 0,0
16.12.2018 10:00:00 4,3 2,4 - - 26 14 - - SSW 1002,0 30 0 0,2
16.12.2018 09:00:00 4,2 3,1 3,7 6,7 9 5 - - S 1001,4 26 0 0,2
16.12.2018 08:00:00 4,6 2,8 - - 15 8 - - WSW 1000,6 30 0 0,0
16.12.2018 07:00:00 5,2 3,3 - - 22 12 - - SW 999,8 35 0 0,2
16.12.2018 06:00:00 5,4 3,0 - - 21 11 - - WSW 998,8 20 0 0,2
16.12.2018 05:00:00 5,6 2,9 - - 24 13 - - WSW 997,7 35 0 0,0
16.12.2018 04:00:00 5,9 2,8 - - 24 13 50 27 WSW 996,7 35 0 0,2
16.12.2018 03:00:00 5,7 3,4 - - 24 13 57 31 W 995,6 7 0 1,0
16.12.2018 02:00:00 4,6 2,6 - - 29 16 74 40 W 994,1 2,3 0 2,2
16.12.2018 01:00:00 5,0 2,9 - - 39 21 65 35 W 991,8 4,6 0 1,6
16.12.2018 00:00:00 4,9 3,2 - - 41 22 76 41 WSW 987,6 11 - 1,0
15.12.2018 23:00:00 5,5 5,0 - - 55 30 83 45 S 985,5 3,1 0 1,2
15.12.2018 22:00:00 4,1 2,9 - - 41 22 70 38 S 987,2 2,7 0 0,2
15.12.2018 21:00:00 3,9 2,0 - - 42 23 70 38 SSE 989,3 45 0 0,0
15.12.2018 20:00:00 2,3 0,5 - - 39 21 61 33 SSE 991,6 45 0 0,0
15.12.2018 19:00:00 2,7 1,3 - - 34 18 54 29 S 993,9 35 0 6,2
15.12.2018 18:00:00 0,9 -0,3 - - 35 19 55 30 SE 995,4 3,9 0 7,2
15.12.2018 17:00:00 0,7 -0,4 - - 22 12 - - SE 997,5 3,7 0 4,8
15.12.2018 16:00:00 1,2 0,1 - - 28 15 54 29 SSE 998,9 3,3 0 4,4
15.12.2018 15:00:00 0,7 -0,2 - - 29 16 48 26 SE 1001,1 1,8 0 5,0
15.12.2018 14:00:00 0,7 -0,3 - - 26 14 46 25 SE 1002,9 2,5 0 2,8
15.12.2018 13:00:00 0,1 -1,2 - - 34 18 54 29 SE 1004,4 4,3 0 0,2
15.12.2018 12:00:00 0,4 -1,9 - - 22 12 - - SSE 1006,5 10 0 0,0
15.12.2018 11:00:00 1,0 -2,5 - - 24 13 - - SE 1008,1 14 0 0,0
15.12.2018 10:00:00 0,6 -2,9 - - 22 12 - - SE 1010,5 13 0 0,0
15.12.2018 09:00:00 0,4 -3,3 4,4 7,0 16 9 - - SSE 1011,8 17 0 0,0
15.12.2018 08:00:00 0,0 -3,9 - - 28 15 46 25 S 1013,0 18 0 0,0
15.12.2018 07:00:00 0,0 -3,9 - - 26 14 48 26 S 1013,3 18 0 0,0
15.12.2018 06:00:00 0,4 -4,0 - - 29 16 46 25 SSE 1014,9 20 0 0,0
15.12.2018 05:00:00 0,7 -3,6 - - 28 15 48 26 S 1015,5 20 0 0,0
15.12.2018 04:00:00 0,7 -3,5 - - 28 15 48 26 S 1016,1 23 0 0,0
15.12.2018 03:00:00 0,7 -3,8 - - 22 12 - - SSE 1017,8 20 0 0,0
15.12.2018 02:00:00 0,5 -4,2 - - 21 11 - - S 1018,2 28 0 0,0
15.12.2018 01:00:00 0,5 -4,5 - - 24 13 - - S 1018,6 30 0 0,0
15.12.2018 00:00:00 0,1 -4,8 - - 18 10 - - SSE 1019,3 30 - 0,0
14.12.2018 23:00:00 0,5 -4,8 - - 22 12 - - SSE 1019,6 30 0 0,0
14.12.2018 22:00:00 0,6 -4,3 - - 26 14 - - S 1020,7 28 0 0,0
14.12.2018 21:00:00 0,6 -3,3 - - 29 16 - - S 1021,3 24 0 0,0
14.12.2018 20:00:00 -1,0 -4,3 - - 16 9 - - S 1021,1 24 0 0,0
14.12.2018 19:00:00 -0,6 -4,1 - - 16 9 - - S 1020,8 27 0 0,0
14.12.2018 18:00:00 -0,1 -3,5 - - 16 9 - - SSE 1021,5 27 0 0,0
14.12.2018 17:00:00 -1,0 -3,6 - - 15 8 - - S 1022,1 22 0 0,0
14.12.2018 16:00:00 -0,7 -3,8 - - 13 7 - - S 1022,3 25 6 0,0
14.12.2018 15:00:00 1,1 -3,5 - - 15 8 - - S 1022,2 28 48 0,0
14.12.2018 14:00:00 1,9 -3,1 - - 15 8 - - S 1021,7 30 54 0,0
14.12.2018 13:00:00 2,1 -3,3 - - 16 9 - - SSE 1022,3 30 60 0,0
14.12.2018 12:00:00 1,8 -3,0 - - 15 8 - - S 1023,1 23 60 0,0
14.12.2018 11:00:00 0,8 -3,0 - - 16 9 - - S 1023,4 25 48 0,0
14.12.2018 10:00:00 -0,7 -3,0 - - 13 7 - - SSW 1023,6 24 30 0,0
14.12.2018 09:00:00 -3,3 -5,7 5,0 7,0 15 8 - - S 1023,4 27 0 0,0
14.12.2018 08:00:00 -1,3 -3,3 - - 15 8 - - S 1022,1 27 0 0,0
14.12.2018 07:00:00 -3,5 -4,6 - - 15 8 - - SSW 1022,6 22 0 0,0
14.12.2018 06:00:00 -3,5 -4,6 - - 11 6 - - S 1023,2 27 0 0,0
14.12.2018 05:00:00 -3,2 -4,8 - - 8 4 - - SE 1023,5 27 0 0,0
14.12.2018 04:00:00 -1,5 -3,5 - - 13 7 - - S 1023,9 35 0 0,0
14.12.2018 03:00:00 -2,1 -3,8 - - 15 8 - - S 1023,8 30 0 0,0
14.12.2018 02:00:00 -2,8 -4,7 - - 9 5 - - SSW 1023,4 35 0 0,0
14.12.2018 01:00:00 -1,2 -3,4 - - 15 8 - - S 1022,9 35 0 0,0
14.12.2018 00:00:00 -1,2 -4,1 - - 13 7 - - S 1023,0 40 - 0,0
13.12.2018 23:00:00 1,5 -2,3 - - 16 9 - - S 1022,3 40 0 0,0
13.12.2018 22:00:00 1,6 -2,4 - - 22 12 - - SSE 1022,3 40 0 0,0
13.12.2018 21:00:00 1,9 -2,7 - - 16 9 - - S 1022,2 45 0 0,0
13.12.2018 20:00:00 1,9 -2,7 - - 21 11 - - SSE 1021,8 50 0 0,0
13.12.2018 19:00:00 2,0 -2,5 - - 18 10 - - S 1021,2 40 0 0,0
13.12.2018 18:00:00 2,0 -2,2 - - 24 13 - - SSE 1020,9 45 0 0,0
13.12.2018 17:00:00 2,2 -2,1 - - 18 10 - - SE 1020,2 40 0 0,0
13.12.2018 16:00:00 2,4 -1,8 - - 24 13 - - SSE 1019,8 40 0 0,0
13.12.2018 15:00:00 2,4 -1,6 - - 24 13 46 25 SSE 1019,0 40 0 0,0
13.12.2018 14:00:00 2,8 -1,5 - - 24 13 50 27 SSE 1018,8 40 12 0,0
13.12.2018 13:00:00 3,0 -1,7 - - 29 16 48 26 SSE 1018,8 45 0 0,0
13.12.2018 12:00:00 3,3 -1,8 - - 29 16 48 26 SSE 1018,9 45 18 0,0
13.12.2018 11:00:00 3,2 -1,9 - - 28 15 50 27 S 1018,7 35 6 0,0
13.12.2018 10:00:00 2,5 -2,3 - - 34 18 54 29 SSE 1018,4 35 0 0,0
13.12.2018 09:00:00 2,2 -2,1 5,7 7,2 31 17 50 27 SSE 1018,1 30 0 0,0
13.12.2018 08:00:00 2,4 -2,0 - - 34 18 57 31 SSE 1017,5 30 0 0,0
13.12.2018 07:00:00 2,5 -1,7 - - 34 18 55 30 SSE 1016,6 30 0 0,0
13.12.2018 06:00:00 2,7 -1,6 - - 37 20 57 31 SSE 1016,5 30 0 0,0
13.12.2018 05:00:00 2,6 -1,5 - - 39 21 65 35 SSE 1016,5 30 0 0,0
13.12.2018 04:00:00 2,4 -1,3 - - 37 20 57 31 SSE 1016,8 30 0 0,0

tt = temperature
td = dewpoint
tt -20cm = temperature -20cm
tt -100cm = temperature -100cm
ff = wind speed
fx = gusts
dd = wind direction
ppp = reduced air pressure
vv = visibility
sd = sunshine duration
rr = precipitation

Next stations